Regional Weather Roundup
Issued by NWS Sioux Falls, SD

Home | Current Version | Previous Version | Graphics & Text | Print | Product List | Glossary Off
Versions: 1 2 3 4 5 6 7 8 9 10 11 12 13 14 15 16 17 18 19 20 21 22 23 24 25 26 27 28 29 30 31 32 33 34 35 36 37 38 39 40 41 42 43 44 45 46 47 48 49 50

128
ASUS43 KFSD 250402
RWRFSD

WEATHER ROUNDUP FOR SE SOUTH DAKOTA/SW MINNESOTA/NW IOWA
NATIONAL WEATHER SERVICE SIOUX FALLS SD
1100 PM CDT TUE APR 24 2018

NOTE: "FAIR" INDICATES FEW OR NO CLOUDS BELOW 12,000 FEET WITH NO
SIGNIFICANT WEATHER AND OR OBSTRUCTIONS TO VISIBILITY.


SDZ038>040-050-052>070-250500-
SOUTHEAST SOUTH DAKOTA

CITY           SKY/WX    TMP DP  RH WIND       PRES   REMARKS
BROOKINGS      CLEAR     39  32  76 N5        30.32R
CHAMBERLAIN    PTCLDY    40  40  99 NW9       30.37S
HURON          CLEAR     33  30  88 NW6       30.34S WCI  28
MADISON        FAIR      37  37 100 N14       30.31S
MITCHELL       PTCLDY    41  37  86 NW7       30.34S
SIOUX FALLS    MOCLDY    44  34  67 N12       30.29S
WINNER         MOCLDY    41  35  79 W8        30.37F
YANKTON        LGT RAIN  44  41  89 NW12      30.32R
$$

MNZ071-072-080-081-089-090-097-098-250500-
SOUTHWEST MINNESOTA

CITY           SKY/WX    TMP DP  RH WIND       PRES   REMARKS
FAIRMONT       CLOUDY    44  39  82 NW9       30.24S
JACKSON        CLOUDY    41  36  81 NW10      30.25S
LUVERNE        PTCLDY    43  32  65 N9G16     30.29R
MARSHALL       CLEAR     40  34  79 N12       30.30R
MONTEVIDEO     CLEAR     39  34  81 N12       30.30R
PIPESTONE      CLEAR    N/A N/A N/A N8        30.28S
REDWOOD FALLS  CLEAR     43  33  68 NW9       30.26S
TRACY          CLEAR     42  36  80 NW9       30.28S
WINDOM         CLEAR     39  25  56 NW13      30.26S
WORTHINGTON    CLOUDY    40  35  83 N15       30.26S
$$

IAZ001>003-012>014-020>022-031-032-NEZ013-014-SDZ071-250500-
NORTHWEST IOWA

CITY           SKY/WX    TMP DP  RH WIND       PRES   REMARKS
CHEROKEE       CLOUDY    45  44  94 N10       30.25F
DENISON        CLOUDY    46  45  93 NE13      30.23S
ESTHERVILLE    PTCLDY    42  38  85 NW9       30.23S
LE MARS        CLOUDY    45  43  93 N6        30.27F
ORANGE CITY    CLOUDY    45  43  93 N8        30.27S
SHELDON        CLOUDY    41  41 100 NW9       30.25S
SIOUX CITY     LGT RAIN  45  41  86 N12       30.27R
SPENCER        CLOUDY    47  40  76 N7        30.25R
STORM LAKE     CLOUDY    45  43  93 N10       30.23F
$$

ABBREVIATIONS USED IN REMARKS
   TC - TEMPERATURE IN CELSIUS
  WCI - WIND CHILL INDEX
   HX - HEAT INDEX
  VSB - VISIBILITY





USA.gov is the U.S. government's official web portal to all federal, state and local government web resources and services.